Regional Weather Roundup
Issued by NWS

Home | Current Version | Previous Version | Text Only | Print | Product List | Glossary Off
Versions: 1 2 3 4 5 6 7 8 9 10 11 12 13 14 15 16 17 18 19 20 21 22 23 24 25 26 27 28 29 30 31 32 33 34 35 36 37 38 39 40 41 42 43 44 45 46 47 48 49 50

000
ASUS45 KBOU 290607
RWRCO

WEATHER ROUNDUP FOR COLORADO
NATIONAL WEATHER SERVICE DENVER/BOULDER CO
1100 PM MST WED JAN 28 2015

NOTE: "FAIR" INDICATES FEW OR NO CLOUDS BELOW 12000 FEET WITH NO
SIGNIFICANT WEATHER AND/OR OBSTRUCTIONS TO VISIBILITY.

COZ001>005-013-030-031-290700-
...NORTHWEST COLORADO...

CITY           SKY/WX    TMP DP  RH WIND       PRES   REMARKS
CRAIG          CLOUDY    34  30  85 CALM      30.33S
HAYDEN         CLOUDY    36  28  75 CALM      30.33R
MEEKER         MOCLDY    29  24  82 CALM      30.34R
MOUNT WERNER   NOT AVBL
STEAMBOAT SPGS CLOUDY    33  30  88 CALM      30.34R
WALDEN         CLOUDY    30  27  86 E3        30.33S
$$

COZ006>008-011-290700-
...WEST CENTRAL VALLEYS...

CITY           SKY/WX    TMP DP  RH WIND       PRES   REMARKS
GRAND JUNCTION CLOUDY    38  31  76 E5        30.29R
MONTROSE       PTCLDY    32  26  78 S7        30.33R WCI  26
EAGLE          CLOUDY    32  27  80 CALM      30.36R
RIFLE          CLOUDY    36  28  73 E5        30.32R
DELTA          PTCLDY    37  29  73 E7        30.32R
NUCLA          PTCLDY    34  27  75 E8        30.34R WCI  27
$$

COZ017>023-064>068-290700-
...SOUTHWEST COLORADO...

CITY           SKY/WX    TMP DP  RH WIND       PRES   REMARKS
DURANGO        CLOUDY    32  27  81 CALM      30.29S
CORTEZ         CLEAR     31  26  82 E7        30.30R WCI  24
PAGOSA SPRINGS CLOUDY    32  25  77 CALM      30.32S
TELLURIDE      CLOUDY    31  22  71 SE3       30.35S
WOLF CREEK PAS NOT AVBL
$$

COZ009-010-012-014-032>034-037-058>063-290700-
...CENTRAL COLORADO...

CITY           SKY/WX    TMP DP  RH WIND       PRES   REMARKS
ASPEN          CLOUDY    30  22  72 CALM      30.33R
BUENA VISTA    PTCLDY    31  18  59 CALM      30.34R
COPPER MTN     LGT SNOW  23  18  80 W5        30.38S WCI  17
BERTHOUD PASS  CLOUDY    16  10  79 NW23      30.37S WCI  -2
COTTONWOOD PAS PTCLDY    32  18  55 SW7       30.35S WCI  26
GUNNISON       MOCLDY    14   7  73 CALM      30.38R
KREMMLING      CLOUDY    30  25  80 CALM      30.36S
LEADVILLE      MOCLDY    19  12  74 NE8       30.35R WCI   9
MONARCH PASS   MOCLDY    19  18  93 MISG      30.48S
SALIDA         PTCLDY    32  20  62 W3        30.41R
SUNLIGHT       PTCLDY    28  27  93 N5          N/A  WCI  23
WILKERSON PASS PTCLDY    27  12  54 CALM      30.39R
$$

COZ069>075-290700-
...SAN LUIS VALLEY/SANGRE DE CRISTO MOUNTAINS...

CITY           SKY/WX    TMP DP  RH WIND       PRES   REMARKS
ALAMOSA        CLOUDY    26  18  71 NW7       30.30F WCI  18
LA VETA PASS   NOT AVBL
SAGUACHE       MOCLDY    32  23  69 N9        30.33S WCI  24
$$

COZ035-036-038>040-290700-
...NORTHERN COLORADO FRONT RANGE...

CITY           SKY/WX    TMP DP  RH WIND       PRES   REMARKS
DENVER INTL AP PTCLDY    36  29  75 N7        30.34R
DMNS CITY PARK   N/A     38  30  72 NE2       30.35R
AURORA         PTCLDY    37  30  76 N1        30.35R
FRONT RANGE AP NOT AVBL
ERIE MUNI ARPT MOCLDY    35  32  90 CALM      30.36R
BOULDER MUN AP CLOUDY    41  32  70 CALM      30.35R
CENTENNIAL     MOCLDY    34  30  85 S3        30.34R
BROOMFIELD     CLOUDY    39  34  81 NW3       30.35R
FORT COLLINS   MOCLDY    39  28  65 NW16      30.33R
LONGMONT       MOCLDY    38  32  78 N6        30.37R
$$

COZ041-046-047-076>085-087-088-290700-
...PIKES PEAK/PALMER DIVIDE AND SOUTHERN FOOTHILLS...

CITY           SKY/WX    TMP DP  RH WIND       PRES   REMARKS
COLO. SPRINGS  PTCLDY    38  30  73 NW14      30.32R
A. F. ACADEMY  PTCLDY    35  29  79 N8        30.33R WCI  28
ELLICOTT       CLEAR    N/A N/A N/A N14       30.29R
FALCON         PTCLDY    33  29  85 N14       30.32R WCI  23
FORT CARSON    PTCLDY    38  30  72 N17       30.30R
LIMON          CLEAR     35  29  78 N13       30.28S WCI  26
MONUMENT HILL  PTCLDY    30  28  93 N6        30.33R WCI  24
TRINIDAD       MOCLDY    41  28  60 CALM      30.33R
$$

COZ042>045-048>051-090-091-290700-
...NORTHEAST COLORADO...

CITY           SKY/WX    TMP DP  RH WIND       PRES   REMARKS
GREELEY ARPT   CLOUDY    45  25  45 N29G35    30.27R
AKRON          PTCLDY    38  31  76 N18       30.27R
BURLINGTON     CLEAR     34  31  88 NW13      30.25R WCI  25
WRAY           CLEAR     38  34  85 NW10      30.27R
STERLING       MOCLDY    41  34  75 NW12      30.29R
HOLYOKE        CLEAR     41  32  70 NW10      30.27R
FORT MORGAN    CLOUDY    42  29  59 N20G29    30.29R
$$

COZ086-089-092>099-290700-
...SOUTHEAST COLORADO...

CITY           SKY/WX    TMP DP  RH WIND       PRES   REMARKS
PUEBLO         PTCLDY    39  30  70 CALM      30.32R
LA JUNTA       PTCLDY    42  32  67 MISG      30.29R
LAMAR          CLEAR     38  32  79 SW3       30.24R
SPRINGFIELD      N/A     33  28  81 NW10      30.26R WCI  25
$$



USA.gov is the U.S. government's official web portal to all federal, state and local government web resources and services.